Content
SEND FEEDBACK

Daily
Averages
Monthly
Summary
Canada

QUEBEC CITY, QUEBEC


Home > North America > Canada > Quebec
Elevation: 239 feet     Latitude: 46 48N     Longitude: 071 23W

WEATHER
 
SELECT A DAY
Number of Records: 192,552;   Date Range: 6/30/96 - 8/27/14
 
SHARE

PRINT THIS DATA

[ ← Previous Day ]
WEATHER ALMANAC - APRIL 24, 2013
[ Next Day → ]
[ °C ]   °F
Weather ElementAverageHighLow
Temperature51.2 °F64.4 °F (5:00 pm)42.8 °F (6:00 am)
Dewpoint39.3 °F46.4 °F (5:00 pm) (7:00 pm)
Humidity65.7 %82 % (11:00 pm)41 % (5:00 pm)
Barometer28.93 in30.18 in (1:00 am) (7:00 pm)
Wind Speed9.3 mph15 mph (5:00 pm)
Wind Gust20.7 mph (6:00 pm)
Weather ElementAverage
Visibility24.1 mi
Wind DirectionENE (80.3 °)

Weather ElementTotal
Precipitation---
Heating Degree Days11.4 (Base 65)
Growing Degree Days3.6 (Base 50)
Averaged from 31 records on April 24, 2013
WEATHER CONDITIONS BREAKOUT
WIND DIRECTION BREAKOUT
WEATHER BY HOUR - APRIL 24, 2013
[ °C ]   °F
Local TimeTemperatureDewpointHumidityBarometerVisibilityWind DirectionWind SpeedGust SpeedPrecipitationEventsConditions
1:00 AM44.6 °F33.8 °F66 %30.18 in15.0 miSE (140°)10.4 mph17.3 mphMostly Cloudy
2:00 AM45.0 °F37.0 °F65 %30.13 inSE (130°)6.9 mph
2:00 AM44.6 °F35.6 °F71 %30.16 in15.0 miESE (120°)9.2 mphMostly Cloudy
3:00 AM44.6 °F37.4 °F76 %30.14 in15.0 miEast (100°)4.6 mphOvercast
4:00 AM44.6 °F37.4 °F76 %30.13 in15.0 miEast (100°)11.5 mphOvercast
5:00 AM44.0 °F38.0 °F73 %30.08 inENE (70°)3.5 mph
5:00 AM44.6 °F37.4 °F76 %30.11 in15.0 miENE (70°)5.8 mphOvercast
6:00 AM42.8 °F37.4 °F81 %30.09 in30.0 miENE (60°)6.9 mphPartly Cloudy
7:00 AM44.6 °F37.4 °F76 %30.08 in30.0 miENE (70°)6.9 mphPartly Cloudy
8:00 AM46.0 °F39.0 °F68 %30.03 inEast (80°)6.9 mph
8:00 AM46.4 °F39.2 °F76 %30.07 in30.0 miENE (60°)9.2 mphScattered Clouds
9:00 AM48.2 °F39.2 °F71 %30.04 in30.0 miENE (60°)10.4 mphScattered Clouds
10:00 AM50.0 °F41.0 °F71 %30.01 in30.0 miENE (70°)6.9 mphMostly Cloudy
11:00 AM54.0 °F42.0 °F53 %29.94 inEast (80°)9.2 mph
11:00 AM53.6 °F41.0 °F62 %29.97 in30.0 miEast (90°)9.2 mph19.6 mphPartly Cloudy
12:00 PM55.4 °F41.0 °F58 %29.93 in30.0 miENE (70°)9.2 mphMostly Cloudy
1:00 PM57.2 °F42.8 °F59 %29.88 in30.0 miNE (50°)12.7 mphMostly Cloudy
2:00 PM60.0 °F44.0 °F45 %29.80 inEast (80°)8.1 mph
2:00 PM59.0 °F42.8 °F55 %29.83 in30.0 miENE (60°)12.7 mphMostly Cloudy
3:00 PM62.6 °F44.6 °F52 %29.77 in30.0 miENE (70°)11.5 mphMostly Cloudy
4:00 PM62.6 °F44.6 °F52 %29.74 in30.0 miENE (70°)9.2 mphScattered Clouds
5:00 PM64.0 °F46.0 °F41 %29.66 inEast (80°)10.4 mph
5:00 PM64.4 °F46.4 °F52 %29.70 in30.0 miEast (80°)15.0 mphScattered Clouds
6:00 PM57.2 °F42.8 °F59 %29.70 in30.0 miENE (70°)15.0 mph20.7 mphScattered Clouds
7:00 PM53.6 °F41.0 °F62 %29.66 in30.0 miEast (80°)12.7 mph20.7 mphMostly Cloudy
8:00 PM49.0 °F42.0 °F68 %29.61 inEast (80°)10.4 mph
8:00 PM50.0 °F41.0 °F71 %29.64 in15.0 miEast (80°)11.5 mphOvercast
9:00 PM48.2 °F41.0 °F76 %29.64 in15.0 miENE (70°)11.5 mphOvercast
9:23 PM48.2 °F0.0 °F15.0 miENE (70°)5.8 mphRainLight Rain Showers
11:00 PM49.0 °F44.0 °F77 %29.55 inESE (110°)4.6 mph
11:00 PM48.2 °F42.8 °F82 %29.59 in15.0 miENE (70°)10.4 mphRainLight Rain Showers
Hourly data recorded from CYQB, located miles away from Quebec City, Quebec







STORIES FROM OUR PARTNERS